[[{"header":{"parameterUnit":"m.s-1","parameterCategory":1,"la1":30.2992,"la2":30.254,"lo1":-89.0895,"lo2":-89.0443,"dy":0.0025,"dx":0.0025,"nx":19,"ny":19,"refTime":"2026-04-04T09:00:00:Z","depth":0,"parameterNumber":2,"parameterNumberName":"U-component_of_WINDS"},"data":[0,0,0,-2.7542,-2.7542,-2.7564,-2.7564,-2.7603,-2.7604,0,0,0,0,0,0,0,0,0,0,0,-2.7541,-2.7541,-2.7542,-2.7543,-2.7564,-2.7564,-2.7603,-2.7604,0,0,0,0,0,0,0,0,0,0,0,-2.7541,-2.7541,-2.7542,-2.7543,-2.7564,-2.7564,-2.7603,-2.7583,0,0,0,0,0,0,0,0,0,0,-2.756,-2.7564,-2.7541,-2.7542,-2.7543,-2.7564,-2.7564,-2.7582,-2.7584,-2.7598,0,-2.761,0,-2.7608,-2.7607,-2.7607,0,0,0,-2.7539,-2.7562,-2.7563,-2.7542,-2.7543,-2.7564,-2.7553,-2.7583,-2.7586,-2.7601,-2.7611,-2.7612,-2.7608,-2.7607,-2.7607,-2.7696,-2.7696,0,0,-2.7537,-2.7548,-2.7561,-2.7565,-2.7561,-2.7553,-2.7554,-2.7585,-2.7596,-2.7611,-2.7613,-2.7609,-2.7608,-2.7608,-2.7695,-2.7696,0,0,0,-2.7537,-2.7547,-2.7547,-2.7564,-2.7567,-2.7554,-2.7555,-2.7595,-2.7594,-2.7613,-2.7609,-2.7608,-2.7608,-2.7695,-2.7695,-2.7734,0,0,0,-2.7536,-2.7547,-2.7547,-2.7553,-2.7566,-2.7581,-2.7565,-2.7592,-2.7595,-2.7609,-2.7608,-2.7609,-2.7694,-2.7695,-2.7731,-2.775,0,0,0,-2.7538,-2.7547,-2.7552,-2.7554,-2.7564,-2.758,-2.7581,-2.7592,-2.7593,-2.7607,-2.7609,-2.7693,-2.7695,-2.7729,-2.7746,-2.7775,0,0,0,-2.7543,-2.7586,-2.7553,-2.76,-2.7564,-2.7604,-2.758,-2.761,-2.7627,-2.7608,-2.7694,-2.7695,-2.7728,-2.7744,-2.7773,-2.78,-2.7813,0,0,-2.7603,-2.7594,-2.7621,-2.7591,-2.764,-2.76,-2.7654,-2.766,-2.7653,-2.7682,-2.7684,-2.7732,-2.7746,-2.7774,-2.7884,-2.7894,0,0,0,-2.7643,-2.7663,-2.7674,-2.769,-2.7695,-2.7701,-2.7698,-2.7701,-2.7725,-2.767,-2.7751,-2.7759,-2.7775,-2.7788,-2.7796,-2.7809,-2.7702,-2.7702,-2.7702,-2.7743,-2.7731,-2.7774,-2.7765,-2.7782,-2.7778,-2.779,-2.7793,-2.7776,-2.7796,-2.7804,-2.7871,-2.7887,-2.7893,-2.7907,-2.7819,-2.7819,-2.7819,-2.7819,-2.7829,-2.7854,-2.7831,-2.7865,-2.7853,-2.7882,-2.7881,-2.7869,-2.7894,-2.7864,-2.7878,-2.7845,-2.7905,-2.7916,-2.7822,-2.7822,-2.7821,-2.7821,-2.7821,-2.7891,-2.7901,-2.7903,-2.7925,-2.7945,-2.7935,-2.796,-2.7949,-2.7938,-2.7952,-2.7959,-2.7958,-2.7955,-2.7956,-2.7957,-2.7957,-2.7957,-2.7957,-2.7957,-2.7954,-2.7955,-2.7977,-2.7988,-2.7997,-2.8007,-2.8006,-2.8015,-2.8022,-2.8011,-2.8011,-2.7992,-2.7913,-2.7892,-2.7961,-2.796,-2.796,-2.7959,-2.7959,-2.8043,-2.8021,-2.8055,-2.8064,-2.8076,-2.8095,-2.8081,-2.81,-2.8107,-2.812,-2.8099,-2.8042,-2.8032,-2.8025,-2.8007,-2.8102,-2.8102,-2.8102,-2.8102,-2.8094,-2.8088,-2.812,-2.8135,-2.815,-2.814,-2.818,-2.818,-2.8177,-2.818,-2.8165,-2.8142,-2.8136,-2.8129,-2.812,-2.8103,-2.8219,-2.8219,-2.822,-2.8147,-2.8142,-2.8178,-2.8173,-2.8182,-2.819,-2.8227,-2.8246,-2.8238,-2.8224,-2.8182,-2.8177,-2.8139,-2.8128,-2.8111,-2.8097,-2.8066,0,0]},{"header":{"parameterUnit":"m.s-1","parameterCategory":1,"la1":30.2992,"la2":30.254,"lo1":-89.0895,"lo2":-89.0443,"dy":0.0025,"dx":0.0025,"nx":19,"ny":19,"refTime":"2026-04-04T09:00:00:Z","depth":0,"parameterNumber":3,"parameterNumberName":"V-component_of_WINDS"},"data":[0,0,0,3.0446,3.0449,3.0603,3.0604,3.0775,3.0777,0,0,0,0,0,0,0,0,0,0,0,3.0385,3.0385,3.0446,3.045,3.0603,3.0604,3.0775,3.0777,0,0,0,0,0,0,0,0,0,0,0,3.0384,3.0385,3.0386,3.045,3.0603,3.0604,3.0775,3.0668,0,0,0,0,0,0,0,0,0,0,3.0523,3.045,3.0385,3.0386,3.0451,3.0603,3.0604,3.0663,3.0674,3.0694,0,3.0707,0,3.0745,3.0786,3.0787,0,0,0,3.0462,3.044,3.0496,3.0386,3.0452,3.0603,3.0537,3.067,3.0683,3.0709,3.071,3.0717,3.0747,3.0787,3.0788,3.0864,3.0863,0,0,3.0453,3.0403,3.0487,3.0504,3.0478,3.0532,3.0542,3.0678,3.0675,3.0711,3.0722,3.075,3.0788,3.0789,3.0864,3.0863,0,0,0,3.042,3.0397,3.0451,3.0496,3.0526,3.0536,3.0548,3.067,3.0691,3.0724,3.0752,3.0789,3.0791,3.0864,3.0864,3.0806,0,0,0,3.0416,3.0378,3.0446,3.0417,3.0523,3.0599,3.0535,3.0682,3.0699,3.0751,3.0789,3.0792,3.0864,3.0864,3.0809,3.0787,0,0,0,3.038,3.0374,3.0391,3.0414,3.0479,3.0598,3.0628,3.0687,3.0715,3.0787,3.0793,3.0865,3.0864,3.081,3.0791,3.0795,0,0,0,3.0327,3.0336,3.0389,3.041,3.0477,3.0561,3.0628,3.0693,3.0747,3.079,3.0864,3.0864,3.0811,3.0793,3.0796,3.0789,3.0781,0,0,3.0311,3.0332,3.0349,3.0401,3.0463,3.0542,3.0596,3.0692,3.0744,3.0821,3.0824,3.0808,3.0791,3.0795,3.0753,3.0746,0,0,0,3.0327,3.0338,3.0366,3.0416,3.049,3.0553,3.0646,3.0682,3.075,3.0773,3.0811,3.0803,3.0807,3.0806,3.08,3.0808,3.0861,3.0861,3.0861,3.0232,3.0299,3.0332,3.0418,3.0466,3.0563,3.0609,3.0674,3.0726,3.0734,3.0758,3.0724,3.0721,3.0717,3.0724,3.0759,3.0758,3.0758,3.0758,3.0215,3.0243,3.0315,3.0372,3.0443,3.0492,3.0587,3.0623,3.068,3.0711,3.0718,3.0747,3.0708,3.0718,3.0754,3.0755,3.0756,3.0756,3.0756,3.0162,3.0187,3.0232,3.0313,3.0368,3.0455,3.0507,3.0569,3.0628,3.0635,3.0668,3.067,3.068,3.0647,3.0646,3.0646,3.0646,3.0646,3.0646,3.0089,3.0141,3.0178,3.0259,3.0301,3.0364,3.0463,3.0506,3.057,3.0612,3.0612,3.0665,3.0691,3.0697,3.0645,3.0645,3.0645,3.0645,3.0645,3.0049,3.0069,3.0124,3.0166,3.0269,3.032,3.04,3.0483,3.0527,3.0551,3.0604,3.0612,3.0638,3.0643,3.0649,3.0588,3.0588,3.0588,3.0588,3.0005,3.0025,3.0097,3.0161,3.023,3.0308,3.0371,3.0449,3.0533,3.0565,3.0583,3.0596,3.0598,3.0623,3.0628,3.0635,3.0571,3.0571,3.0571,2.9985,3.0015,3.0056,3.0138,3.0224,3.0296,3.0357,3.0428,3.0527,3.0572,3.0592,3.0593,3.0614,3.0617,3.0661,3.0668,3.0681,0,0]}]]